Year,Month,Day,Hour,Minute,Value (Times are PST for temperature in C)
2008,08,23,00,00,15.50
2008,08,23,00,01,15.50
2008,08,23,00,02,15.50
2008,08,23,00,03,15.50
2008,08,23,00,04,15.50
2008,08,23,00,05,15.40
2008,08,23,00,06,15.40
2008,08,23,00,07,15.40
2008,08,23,00,08,15.40
2008,08,23,00,09,15.30
2008,08,23,00,10,15.30
2008,08,23,00,11,15.30
2008,08,23,00,12,15.30
2008,08,23,00,13,15.30
2008,08,23,00,14,15.30
2008,08,23,00,15,15.30
2008,08,23,00,16,15.30
2008,08,23,00,17,15.30
2008,08,23,00,18,15.30
2008,08,23,00,19,15.30
2008,08,23,00,20,15.30
2008,08,23,00,21,15.30
2008,08,23,00,22,15.30
2008,08,23,00,23,15.30
2008,08,23,00,24,15.30
2008,08,23,00,25,15.30
2008,08,23,00,26,15.30
2008,08,23,00,27,15.30
2008,08,23,00,28,15.30
2008,08,23,00,29,15.30
2008,08,23,00,30,15.30
2008,08,23,00,31,15.30
2008,08,23,00,32,15.30
2008,08,23,00,33,15.30
2008,08,23,00,34,15.30
2008,08,23,00,35,15.30
2008,08,23,00,36,15.30
2008,08,23,00,37,15.40
2008,08,23,00,38,15.40
2008,08,23,00,39,15.40
2008,08,23,00,40,15.40
2008,08,23,00,41,15.40
2008,08,23,00,42,15.40
2008,08,23,00,43,15.40
2008,08,23,00,44,15.50
2008,08,23,00,45,15.50
2008,08,23,00,46,15.50
2008,08,23,00,47,15.50
2008,08,23,00,48,15.50
2008,08,23,00,49,15.50
2008,08,23,00,50,15.50
2008,08,23,00,51,15.60
2008,08,23,00,52,15.60
2008,08,23,00,53,15.60
2008,08,23,00,54,15.60
2008,08,23,00,55,15.60
2008,08,23,00,56,15.60
2008,08,23,00,57,15.60
2008,08,23,00,58,15.60
2008,08,23,00,59,15.60
2008,08,23,01,00,15.60
2008,08,23,01,01,15.60
2008,08,23,01,02,15.60
2008,08,23,01,03,15.60
2008,08,23,01,04,15.60
2008,08,23,01,05,15.60
2008,08,23,01,06,15.60
2008,08,23,01,07,15.70
2008,08,23,01,08,15.70
2008,08,23,01,09,15.70
2008,08,23,01,10,15.80
2008,08,23,01,11,15.80
2008,08,23,01,12,15.80
2008,08,23,01,13,15.80
2008,08,23,01,14,15.80
2008,08,23,01,15,15.80
2008,08,23,01,16,15.80
2008,08,23,01,17,15.80
2008,08,23,01,18,15.80
2008,08,23,01,19,15.80
2008,08,23,01,20,15.80
2008,08,23,01,21,15.80
2008,08,23,01,22,15.80
2008,08,23,01,23,15.80
2008,08,23,01,24,15.80
2008,08,23,01,25,15.80
2008,08,23,01,26,15.80
2008,08,23,01,27,15.80
2008,08,23,01,28,15.80
2008,08,23,01,29,15.80
2008,08,23,01,30,15.80
2008,08,23,01,31,15.80
2008,08,23,01,32,15.80
2008,08,23,01,33,15.80
2008,08,23,01,34,15.80
2008,08,23,01,35,15.80
2008,08,23,01,36,15.80
2008,08,23,01,37,15.80
2008,08,23,01,38,15.80
2008,08,23,01,39,15.80
2008,08,23,01,40,15.80
2008,08,23,01,41,15.80
2008,08,23,01,42,15.80
2008,08,23,01,43,15.80
2008,08,23,01,44,15.80
2008,08,23,01,45,15.80
2008,08,23,01,46,15.80
2008,08,23,01,47,15.80
2008,08,23,01,48,15.80
2008,08,23,01,49,15.80
2008,08,23,01,50,15.80
2008,08,23,01,51,15.80
2008,08,23,01,52,15.80
2008,08,23,01,53,15.80
2008,08,23,01,54,15.80
2008,08,23,01,55,15.90
2008,08,23,01,56,15.90
2008,08,23,01,57,15.90
2008,08,23,01,58,15.90
2008,08,23,01,59,15.90
2008,08,23,02,00,15.90
2008,08,23,02,01,16.00
2008,08,23,02,02,16.00
2008,08,23,02,03,15.90
2008,08,23,02,04,15.90
2008,08,23,02,05,15.90
2008,08,23,02,06,15.90
2008,08,23,02,07,15.90
2008,08,23,02,08,15.80
2008,08,23,02,09,15.80
2008,08,23,02,10,15.80
2008,08,23,02,11,15.80
2008,08,23,02,12,15.80
2008,08,23,02,13,15.80
2008,08,23,02,14,15.80
2008,08,23,02,15,15.80
2008,08,23,02,16,15.80
2008,08,23,02,17,15.80
2008,08,23,02,18,15.80
2008,08,23,02,19,15.80
2008,08,23,02,20,15.80
2008,08,23,02,21,15.80
2008,08,23,02,22,15.80
2008,08,23,02,23,15.80
2008,08,23,02,24,15.80
2008,08,23,02,25,15.90
2008,08,23,02,26,15.80
2008,08,23,02,27,15.80
2008,08,23,02,28,15.80
2008,08,23,02,29,15.80
2008,08,23,02,30,15.80
2008,08,23,02,31,15.80
2008,08,23,02,32,15.80
2008,08,23,02,33,15.80
2008,08,23,02,34,15.80
2008,08,23,02,35,15.70
2008,08,23,02,36,15.70
2008,08,23,02,37,15.70
2008,08,23,02,38,15.70
2008,08,23,02,39,15.70
2008,08,23,02,40,15.70
2008,08,23,02,41,15.70
2008,08,23,02,42,15.70
2008,08,23,02,43,15.70
2008,08,23,02,44,15.60
2008,08,23,02,45,15.60
2008,08,23,02,46,15.60
2008,08,23,02,47,15.60
2008,08,23,02,48,15.60
2008,08,23,02,49,15.60
2008,08,23,02,50,15.60
2008,08,23,02,51,15.60
2008,08,23,02,52,15.50
2008,08,23,02,53,15.50
2008,08,23,02,54,15.50
2008,08,23,02,55,15.50
2008,08,23,02,56,15.40
2008,08,23,02,57,15.40
2008,08,23,02,58,15.40
2008,08,23,02,59,15.30
2008,08,23,03,00,15.30
2008,08,23,03,01,15.30
2008,08,23,03,02,15.30
2008,08,23,03,03,15.20
2008,08,23,03,04,15.20
2008,08,23,03,05,15.20
2008,08,23,03,06,15.20
2008,08,23,03,07,15.10
2008,08,23,03,08,15.10
2008,08,23,03,09,15.10
2008,08,23,03,10,15.00
2008,08,23,03,11,15.00
2008,08,23,03,12,14.90
2008,08,23,03,13,14.90
2008,08,23,03,14,14.90
2008,08,23,03,15,14.90
2008,08,23,03,16,14.80
2008,08,23,03,17,14.80
2008,08,23,03,18,14.80
2008,08,23,03,19,14.80
2008,08,23,03,20,14.80
2008,08,23,03,21,14.70
2008,08,23,03,22,14.70
2008,08,23,03,23,14.70
2008,08,23,03,24,14.60
2008,08,23,03,25,14.60
2008,08,23,03,26,14.60
2008,08,23,03,27,14.60
2008,08,23,03,28,14.50
2008,08,23,03,29,14.50
2008,08,23,03,30,14.40
2008,08,23,03,31,14.30
2008,08,23,03,32,14.30
2008,08,23,03,33,14.20
2008,08,23,03,34,14.20
2008,08,23,03,35,14.20
2008,08,23,03,36,14.20
2008,08,23,03,37,14.20
2008,08,23,03,38,14.20
2008,08,23,03,39,14.10
2008,08,23,03,40,14.10
2008,08,23,03,41,14.10
2008,08,23,03,42,14.10
2008,08,23,03,43,14.10
2008,08,23,03,44,14.10
2008,08,23,03,45,14.10
2008,08,23,03,46,14.10
2008,08,23,03,47,14.10
2008,08,23,03,48,14.10
2008,08,23,03,49,14.00
2008,08,23,03,50,14.00
2008,08,23,03,51,14.00
2008,08,23,03,52,14.00
2008,08,23,03,53,14.00
2008,08,23,03,54,14.00
2008,08,23,03,55,14.00
2008,08,23,03,56,14.00
2008,08,23,03,57,14.00
2008,08,23,03,58,14.00
2008,08,23,03,59,14.00
2008,08,23,04,00,13.90
2008,08,23,04,01,13.90
2008,08,23,04,02,13.90
2008,08,23,04,03,13.90
2008,08,23,04,04,13.90
2008,08,23,04,05,13.90
2008,08,23,04,06,13.90
2008,08,23,04,07,13.90
2008,08,23,04,08,13.90
2008,08,23,04,09,13.90
2008,08,23,04,10,13.90
2008,08,23,04,11,13.90
2008,08,23,04,12,13.90
2008,08,23,04,13,13.90
2008,08,23,04,14,13.90
2008,08,23,04,15,13.90
2008,08,23,04,16,13.90
2008,08,23,04,17,13.80
2008,08,23,04,18,13.80
2008,08,23,04,19,13.80
2008,08,23,04,20,13.80
2008,08,23,04,21,13.80
2008,08,23,04,22,13.80
2008,08,23,04,23,13.80
2008,08,23,04,24,13.80
2008,08,23,04,25,13.80
2008,08,23,04,26,13.80
2008,08,23,04,27,13.80
2008,08,23,04,28,13.70
2008,08,23,04,29,13.70
2008,08,23,04,30,13.70
2008,08,23,04,31,13.70
2008,08,23,04,32,13.70
2008,08,23,04,33,13.70
2008,08,23,04,34,13.70
2008,08,23,04,35,13.70
2008,08,23,04,36,13.70
2008,08,23,04,37,13.60
2008,08,23,04,38,13.60
2008,08,23,04,39,13.60
2008,08,23,04,40,13.60
2008,08,23,04,41,13.60
2008,08,23,04,42,13.60
2008,08,23,04,43,13.60
2008,08,23,04,44,13.60
2008,08,23,04,45,13.70
2008,08,23,04,46,13.70
2008,08,23,04,47,13.70
2008,08,23,04,48,13.70
2008,08,23,04,49,13.70
2008,08,23,04,50,13.70
2008,08,23,04,51,13.70
2008,08,23,04,52,13.70
2008,08,23,04,53,13.70
2008,08,23,04,54,13.70
2008,08,23,04,55,13.70
2008,08,23,04,56,13.70
2008,08,23,04,57,13.70
2008,08,23,04,58,13.70
2008,08,23,04,59,13.70
2008,08,23,05,00,13.70
2008,08,23,05,01,13.70
2008,08,23,05,02,13.70
2008,08,23,05,03,13.70
2008,08,23,05,04,13.70
2008,08,23,05,05,13.70
2008,08,23,05,06,13.70
2008,08,23,05,07,13.70
2008,08,23,05,08,13.70
2008,08,23,05,09,13.70
2008,08,23,05,10,13.70
2008,08,23,05,11,13.80
2008,08,23,05,12,13.80
2008,08,23,05,13,13.80
2008,08,23,05,14,13.80
2008,08,23,05,15,13.80
2008,08,23,05,16,13.80
2008,08,23,05,17,13.80
2008,08,23,05,18,13.80
2008,08,23,05,19,13.80
2008,08,23,05,20,13.80
2008,08,23,05,21,13.80
2008,08,23,05,22,13.80
2008,08,23,05,23,13.80
2008,08,23,05,24,13.80
2008,08,23,05,25,13.80
2008,08,23,05,26,13.80
2008,08,23,05,27,13.80
2008,08,23,05,28,13.80
2008,08,23,05,29,13.80
2008,08,23,05,30,13.90
2008,08,23,05,31,13.90
2008,08,23,05,32,13.90
2008,08,23,05,33,13.90
2008,08,23,05,34,13.90
2008,08,23,05,35,13.90
2008,08,23,05,36,14.00
2008,08,23,05,37,14.00
2008,08,23,05,38,14.00
2008,08,23,05,39,14.00
2008,08,23,05,40,14.00
2008,08,23,05,41,14.00
2008,08,23,05,42,14.00
2008,08,23,05,43,14.00
2008,08,23,05,44,14.00
2008,08,23,05,45,14.10
2008,08,23,05,46,14.10
2008,08,23,05,47,14.10
2008,08,23,05,48,14.10
2008,08,23,05,49,14.10
2008,08,23,05,50,14.10
2008,08,23,05,51,14.10
2008,08,23,05,52,14.10
2008,08,23,05,53,14.10
2008,08,23,05,54,14.10
2008,08,23,05,55,14.10
2008,08,23,05,56,14.10
2008,08,23,05,57,14.10
2008,08,23,05,58,14.10
2008,08,23,05,59,14.10
2008,08,23,06,00,14.10
2008,08,23,06,01,14.10
2008,08,23,06,02,14.20
2008,08,23,06,03,14.20
2008,08,23,06,04,14.20
2008,08,23,06,05,14.20
2008,08,23,06,06,14.20
2008,08,23,06,07,14.20
2008,08,23,06,08,14.20
2008,08,23,06,09,14.20
2008,08,23,06,10,14.20
2008,08,23,06,11,14.20
2008,08,23,06,12,14.20
2008,08,23,06,13,14.20
2008,08,23,06,14,14.20
2008,08,23,06,15,14.20
2008,08,23,06,16,14.20
2008,08,23,06,17,14.30
2008,08,23,06,18,14.30
2008,08,23,06,19,14.30
2008,08,23,06,20,14.30
2008,08,23,06,21,14.30
2008,08,23,06,22,14.30
2008,08,23,06,23,14.30
2008,08,23,06,24,14.30
2008,08,23,06,25,14.40
2008,08,23,06,26,14.40
2008,08,23,06,27,14.40
2008,08,23,06,28,14.40
2008,08,23,06,29,14.40
2008,08,23,06,30,14.50
2008,08,23,06,31,14.50
2008,08,23,06,32,14.50
2008,08,23,06,33,14.50
2008,08,23,06,34,14.60
2008,08,23,06,35,14.60
2008,08,23,06,36,14.60
2008,08,23,06,37,14.60
2008,08,23,06,38,14.60
2008,08,23,06,39,14.70
2008,08,23,06,40,14.70
2008,08,23,06,41,14.70
2008,08,23,06,42,14.70
2008,08,23,06,43,14.70
2008,08,23,06,44,14.70
2008,08,23,06,45,14.80
2008,08,23,06,46,14.80
2008,08,23,06,47,14.80
2008,08,23,06,48,14.80
2008,08,23,06,49,14.80
2008,08,23,06,50,14.80
2008,08,23,06,51,14.80
2008,08,23,06,52,14.80
2008,08,23,06,53,14.80
2008,08,23,06,54,14.80
2008,08,23,06,55,14.80
2008,08,23,06,56,14.80
2008,08,23,06,57,14.80
2008,08,23,06,58,14.80
2008,08,23,06,59,14.80
2008,08,23,07,00,14.80
2008,08,23,07,01,14.80
2008,08,23,07,02,14.80
2008,08,23,07,03,14.80
2008,08,23,07,04,14.80
2008,08,23,07,05,14.80
2008,08,23,07,06,14.80
2008,08,23,07,07,14.80
2008,08,23,07,08,14.80
2008,08,23,07,09,14.80
2008,08,23,07,10,14.80
2008,08,23,07,11,14.80
2008,08,23,07,12,14.80
2008,08,23,07,13,14.80
2008,08,23,07,14,14.80
2008,08,23,07,15,14.80
2008,08,23,07,16,14.80
2008,08,23,07,17,14.80
2008,08,23,07,18,14.80
2008,08,23,07,19,14.80
2008,08,23,07,20,14.80
2008,08,23,07,21,14.80
2008,08,23,07,22,14.80
2008,08,23,07,23,14.80
2008,08,23,07,24,14.80
2008,08,23,07,25,14.80
2008,08,23,07,26,14.80
2008,08,23,07,27,14.80
2008,08,23,07,28,14.80
2008,08,23,07,29,14.70
2008,08,23,07,30,14.70
2008,08,23,07,31,14.60
2008,08,23,07,32,14.50
2008,08,23,07,33,14.50
2008,08,23,07,34,14.40
2008,08,23,07,35,14.30
2008,08,23,07,36,14.20
2008,08,23,07,37,14.20
2008,08,23,07,38,14.10
2008,08,23,07,39,14.00
2008,08,23,07,40,13.90
2008,08,23,07,41,13.80
2008,08,23,07,42,13.80
2008,08,23,07,43,13.70
2008,08,23,07,44,13.70
2008,08,23,07,45,13.60
2008,08,23,07,46,13.50
2008,08,23,07,47,13.50
2008,08,23,07,48,13.50
2008,08,23,07,49,13.50
2008,08,23,07,50,13.50
2008,08,23,07,51,13.50
2008,08,23,07,52,13.50
2008,08,23,07,53,13.50
2008,08,23,07,54,13.50
2008,08,23,07,55,13.50
2008,08,23,07,56,13.50
2008,08,23,07,57,13.60
2008,08,23,07,58,13.60
2008,08,23,07,59,13.60
2008,08,23,08,00,13.70
2008,08,23,08,01,13.60
2008,08,23,08,02,13.60
2008,08,23,08,03,13.60
2008,08,23,08,04,13.60
2008,08,23,08,05,13.60
2008,08,23,08,06,13.70
2008,08,23,08,07,13.70
2008,08,23,08,08,13.70
2008,08,23,08,09,13.70
2008,08,23,08,10,13.70
2008,08,23,08,11,13.70
2008,08,23,08,12,13.70
2008,08,23,08,13,13.70
2008,08,23,08,14,13.70
2008,08,23,08,15,13.70
2008,08,23,08,16,13.80
2008,08,23,08,17,13.80
2008,08,23,08,18,13.80
2008,08,23,08,19,13.80
2008,08,23,08,20,13.80
2008,08,23,08,21,13.80
2008,08,23,08,22,13.80
2008,08,23,08,23,13.80
2008,08,23,08,24,13.80
2008,08,23,08,25,13.90
2008,08,23,08,26,13.90
2008,08,23,08,27,13.90
2008,08,23,08,28,13.90
2008,08,23,08,29,14.00
2008,08,23,08,30,14.00
2008,08,23,08,31,14.00
2008,08,23,08,32,14.00
2008,08,23,08,33,14.00
2008,08,23,08,34,14.00
2008,08,23,08,35,14.00
2008,08,23,08,36,14.10
2008,08,23,08,37,14.10
2008,08,23,08,38,14.20
2008,08,23,08,39,14.20
2008,08,23,08,40,14.20
2008,08,23,08,41,14.20
2008,08,23,08,42,14.20
2008,08,23,08,43,14.20
2008,08,23,08,44,14.20
2008,08,23,08,45,14.30
2008,08,23,08,46,14.30
2008,08,23,08,47,14.40
2008,08,23,08,48,14.30
2008,08,23,08,49,14.30
2008,08,23,08,50,14.30
2008,08,23,08,51,14.30
2008,08,23,08,52,14.30
2008,08,23,08,53,14.30
2008,08,23,08,54,14.30
2008,08,23,08,55,14.40
2008,08,23,08,56,14.40
2008,08,23,08,57,14.40
2008,08,23,08,58,14.50
2008,08,23,08,59,14.50
2008,08,23,09,00,14.50
2008,08,23,09,01,14.50
2008,08,23,09,02,14.50
2008,08,23,09,03,14.50
2008,08,23,09,04,14.50
2008,08,23,09,05,14.50
2008,08,23,09,06,14.50
2008,08,23,09,07,14.60
2008,08,23,09,08,14.60
2008,08,23,09,09,14.60
2008,08,23,09,10,14.70
2008,08,23,09,11,14.70
2008,08,23,09,12,14.70
2008,08,23,09,13,14.80
2008,08,23,09,14,14.70
2008,08,23,09,15,14.70
2008,08,23,09,16,14.70
2008,08,23,09,17,14.70
2008,08,23,09,18,14.70
2008,08,23,09,19,14.70
2008,08,23,09,20,14.70
2008,08,23,09,21,14.70
2008,08,23,09,22,14.70
2008,08,23,09,23,14.80
2008,08,23,09,24,14.80
2008,08,23,09,25,14.80
2008,08,23,09,26,14.80
2008,08,23,09,27,14.80
2008,08,23,09,28,14.80
2008,08,23,09,29,14.80
2008,08,23,09,30,14.90
2008,08,23,09,31,14.90
2008,08,23,09,32,15.00
2008,08,23,09,33,15.10
2008,08,23,09,34,15.10
2008,08,23,09,35,15.20
2008,08,23,09,36,15.20
2008,08,23,09,37,15.30
2008,08,23,09,38,15.30
2008,08,23,09,39,15.30
2008,08,23,09,40,15.30
2008,08,23,09,41,15.40
2008,08,23,09,42,15.40
2008,08,23,09,43,15.50
2008,08,23,09,44,15.50
2008,08,23,09,45,15.50
2008,08,23,09,46,15.60
2008,08,23,09,47,15.70
2008,08,23,09,48,15.80
2008,08,23,09,49,15.80
2008,08,23,09,50,15.80
2008,08,23,09,51,15.80
2008,08,23,09,52,15.90
2008,08,23,09,53,15.90
2008,08,23,09,54,16.00
2008,08,23,09,55,16.10
2008,08,23,09,56,16.10
2008,08,23,09,57,16.20
2008,08,23,09,58,16.30
2008,08,23,09,59,16.40
2008,08,23,10,00,16.40
2008,08,23,10,01,16.60
2008,08,23,10,02,16.60
2008,08,23,10,03,16.70
2008,08,23,10,04,16.70
2008,08,23,10,05,16.70
2008,08,23,10,06,16.70
2008,08,23,10,07,16.80
2008,08,23,10,08,16.80
2008,08,23,10,09,16.80
2008,08,23,10,10,16.80
2008,08,23,10,11,16.80
2008,08,23,10,12,16.90
2008,08,23,10,13,17.00
2008,08,23,10,14,17.00
2008,08,23,10,15,17.10
2008,08,23,10,16,17.30
2008,08,23,10,17,17.40
2008,08,23,10,18,17.50
2008,08,23,10,19,17.50
2008,08,23,10,20,17.60
2008,08,23,10,21,17.60
2008,08,23,10,22,17.70
2008,08,23,10,23,17.80
2008,08,23,10,24,17.90
2008,08,23,10,25,17.90
2008,08,23,10,26,18.00
2008,08,23,10,27,18.10
2008,08,23,10,28,18.20
2008,08,23,10,29,18.30
2008,08,23,10,30,18.50
2008,08,23,10,31,18.50
2008,08,23,10,32,18.60
2008,08,23,10,33,18.60
2008,08,23,10,34,18.60
2008,08,23,10,35,18.70
2008,08,23,10,36,18.60
2008,08,23,10,37,18.60
2008,08,23,10,38,18.60
2008,08,23,10,39,18.60
2008,08,23,10,40,18.60
2008,08,23,10,41,18.70
2008,08,23,10,42,18.80
2008,08,23,10,43,18.90
2008,08,23,10,44,18.90
2008,08,23,10,45,19.10
2008,08,23,10,46,19.10
2008,08,23,10,47,19.20
2008,08,23,10,48,19.20
2008,08,23,10,49,19.30
2008,08,23,10,50,19.30
2008,08,23,10,51,19.40
2008,08,23,10,52,19.50
2008,08,23,10,53,19.50
2008,08,23,10,54,19.40
2008,08,23,10,55,19.30
2008,08,23,10,56,19.30
2008,08,23,10,57,19.40
2008,08,23,10,58,19.50
2008,08,23,10,59,19.40
2008,08,23,11,00,19.40
2008,08,23,11,01,19.40
2008,08,23,11,02,19.40
2008,08,23,11,03,19.50
2008,08,23,11,04,19.60
2008,08,23,11,05,19.60
2008,08,23,11,06,19.60
2008,08,23,11,07,19.70
2008,08,23,11,08,19.80
2008,08,23,11,09,19.90
2008,08,23,11,10,19.90
2008,08,23,11,11,19.90
2008,08,23,11,12,19.80
2008,08,23,11,13,19.80
2008,08,23,11,14,19.80
2008,08,23,11,15,19.80
2008,08,23,11,16,19.80
2008,08,23,11,17,19.80
2008,08,23,11,18,19.70
2008,08,23,11,19,19.60
2008,08,23,11,20,19.60
2008,08,23,11,21,19.70
2008,08,23,11,22,19.70
2008,08,23,11,23,19.90
2008,08,23,11,24,19.90
2008,08,23,11,25,20.00
2008,08,23,11,26,20.10
2008,08,23,11,27,20.10
2008,08,23,11,28,20.20
2008,08,23,11,29,20.20
2008,08,23,11,30,20.20
2008,08,23,11,31,20.20
2008,08,23,11,32,20.20
2008,08,23,11,33,20.20
2008,08,23,11,34,20.20
2008,08,23,11,35,20.30
2008,08,23,11,36,20.40
2008,08,23,11,37,20.50
2008,08,23,11,38,20.60
2008,08,23,11,39,20.70
2008,08,23,11,40,20.80
2008,08,23,11,41,20.60
2008,08,23,11,42,20.60
2008,08,23,11,43,20.60
2008,08,23,11,44,20.60
2008,08,23,11,45,20.50
2008,08,23,11,46,20.50
2008,08,23,11,47,20.50
2008,08,23,11,48,20.50
2008,08,23,11,49,20.50
2008,08,23,11,50,20.60
2008,08,23,11,51,20.60
2008,08,23,11,52,20.60
2008,08,23,11,53,20.60
2008,08,23,11,54,20.50
2008,08,23,11,55,20.40
2008,08,23,11,56,20.40
2008,08,23,11,57,20.40
2008,08,23,11,58,20.30
2008,08,23,11,59,20.20
2008,08,23,12,00,20.20
2008,08,23,12,01,20.20
2008,08,23,12,02,20.20
2008,08,23,12,03,20.20
2008,08,23,12,04,20.20
2008,08,23,12,05,20.30
2008,08,23,12,06,20.30
2008,08,23,12,07,20.30
2008,08,23,12,08,20.50
2008,08,23,12,09,20.60
2008,08,23,12,10,20.80
2008,08,23,12,11,20.90
2008,08,23,12,12,21.00
2008,08,23,12,13,21.00
2008,08,23,12,14,20.90
2008,08,23,12,15,20.90
2008,08,23,12,16,20.90
2008,08,23,12,17,20.80
2008,08,23,12,18,20.70
2008,08,23,12,19,20.70
2008,08,23,12,20,20.70
2008,08,23,12,21,20.60
2008,08,23,12,22,20.50
2008,08,23,12,23,20.40
2008,08,23,12,24,20.50
2008,08,23,12,25,20.60
2008,08,23,12,26,20.60
2008,08,23,12,27,20.60
2008,08,23,12,28,20.50
2008,08,23,12,29,20.40
2008,08,23,12,30,20.20
2008,08,23,12,31,20.20
2008,08,23,12,32,20.20
2008,08,23,12,33,20.30
2008,08,23,12,34,20.50
2008,08,23,12,35,20.60
2008,08,23,12,36,20.70
2008,08,23,12,37,20.90
2008,08,23,12,38,20.90
2008,08,23,12,39,20.80
2008,08,23,12,40,20.80
2008,08,23,12,41,20.80
2008,08,23,12,42,20.90
2008,08,23,12,43,20.90
2008,08,23,12,44,20.90
2008,08,23,12,45,21.00
2008,08,23,12,46,21.00
2008,08,23,12,47,21.00
2008,08,23,12,48,20.90
2008,08,23,12,49,20.80
2008,08,23,12,50,20.60
2008,08,23,12,51,20.40
2008,08,23,12,52,20.40
2008,08,23,12,53,20.30
2008,08,23,12,54,20.30
2008,08,23,12,55,20.40
2008,08,23,12,56,20.40
2008,08,23,12,57,20.50
2008,08,23,12,58,20.40
2008,08,23,12,59,20.40
2008,08,23,13,00,20.50
2008,08,23,13,01,20.60
2008,08,23,13,02,20.70
2008,08,23,13,03,20.80
2008,08,23,13,04,20.70
2008,08,23,13,05,20.60
2008,08,23,13,06,20.50
2008,08,23,13,07,20.50
2008,08,23,13,08,20.50
2008,08,23,13,09,20.50
2008,08,23,13,10,20.50
2008,08,23,13,11,20.50
2008,08,23,13,12,20.50
2008,08,23,13,13,20.60
2008,08,23,13,14,20.60
2008,08,23,13,15,20.60
2008,08,23,13,16,20.70
2008,08,23,13,17,20.70
2008,08,23,13,18,20.70
2008,08,23,13,19,20.60
2008,08,23,13,20,20.60
2008,08,23,13,21,20.70
2008,08,23,13,22,20.60
2008,08,23,13,23,20.70
2008,08,23,13,24,20.70
2008,08,23,13,25,20.80
2008,08,23,13,26,20.90
2008,08,23,13,27,20.90
2008,08,23,13,28,20.90
2008,08,23,13,29,20.80
2008,08,23,13,30,20.80
2008,08,23,13,31,21.00
2008,08,23,13,32,21.10
2008,08,23,13,33,21.20
2008,08,23,13,34,21.20
2008,08,23,13,35,21.10
2008,08,23,13,36,21.10
2008,08,23,13,37,21.10
2008,08,23,13,38,21.10
2008,08,23,13,39,21.20
2008,08,23,13,40,21.30
2008,08,23,13,41,21.30
2008,08,23,13,42,21.30
2008,08,23,13,43,21.40
2008,08,23,13,44,21.40
2008,08,23,13,45,21.50
2008,08,23,13,46,21.60
2008,08,23,13,47,21.60
2008,08,23,13,48,21.60
2008,08,23,13,49,21.60
2008,08,23,13,50,21.80
2008,08,23,13,51,21.90
2008,08,23,13,52,22.00
2008,08,23,13,53,22.10
2008,08,23,13,54,22.10
2008,08,23,13,55,22.00
2008,08,23,13,56,22.00
2008,08,23,13,57,22.10
2008,08,23,13,58,22.10
2008,08,23,13,59,22.20
2008,08,23,14,00,22.20
2008,08,23,14,01,22.30
2008,08,23,14,02,22.30
2008,08,23,14,03,22.20
2008,08,23,14,04,22.20
2008,08,23,14,05,22.20
2008,08,23,14,06,22.20
2008,08,23,14,07,22.20
2008,08,23,14,08,22.10
2008,08,23,14,09,22.10
2008,08,23,14,10,22.10
2008,08,23,14,11,22.00
2008,08,23,14,12,22.10
2008,08,23,14,13,22.10
2008,08,23,14,14,22.30
2008,08,23,14,15,22.30
2008,08,23,14,16,22.50
2008,08,23,14,17,22.50
2008,08,23,14,18,22.50
2008,08,23,14,19,22.60
2008,08,23,14,20,22.60
2008,08,23,14,21,22.60
2008,08,23,14,22,22.60
2008,08,23,14,23,22.70
2008,08,23,14,24,22.60
2008,08,23,14,25,22.50
2008,08,23,14,26,22.50
2008,08,23,14,27,22.60
2008,08,23,14,28,22.60
2008,08,23,14,29,22.60
2008,08,23,14,30,22.70
2008,08,23,14,31,22.80
2008,08,23,14,32,22.80
2008,08,23,14,33,22.90
2008,08,23,14,34,22.90
2008,08,23,14,35,23.10
2008,08,23,14,36,23.10
2008,08,23,14,37,23.10
2008,08,23,14,38,23.00
2008,08,23,14,39,22.90
2008,08,23,14,40,22.90
2008,08,23,14,41,22.70
2008,08,23,14,42,22.70
2008,08,23,14,43,22.80
2008,08,23,14,44,22.80
2008,08,23,14,45,22.90
2008,08,23,14,46,22.90
2008,08,23,14,47,22.90
2008,08,23,14,48,22.90
2008,08,23,14,49,22.90
2008,08,23,14,50,23.00
2008,08,23,14,51,23.10
2008,08,23,14,52,23.20
2008,08,23,14,53,23.30
2008,08,23,14,54,23.20
2008,08,23,14,55,23.10
2008,08,23,14,56,23.00
2008,08,23,14,57,22.90
2008,08,23,14,58,22.90
2008,08,23,14,59,23.00
2008,08,23,15,00,23.10
2008,08,23,15,01,23.10
2008,08,23,15,02,23.10
2008,08,23,15,03,22.90
2008,08,23,15,04,22.90
2008,08,23,15,05,22.90
2008,08,23,15,06,22.90
2008,08,23,15,07,22.90
2008,08,23,15,08,22.90
2008,08,23,15,09,22.80
2008,08,23,15,10,22.70
2008,08,23,15,11,22.70
2008,08,23,15,12,22.70
2008,08,23,15,13,22.80
2008,08,23,15,14,22.80
2008,08,23,15,15,22.90
2008,08,23,15,16,22.90
2008,08,23,15,17,22.90
2008,08,23,15,18,22.90
2008,08,23,15,19,22.90
2008,08,23,15,20,22.90
2008,08,23,15,21,22.90
2008,08,23,15,22,22.90
2008,08,23,15,23,22.90
2008,08,23,15,24,22.90
2008,08,23,15,25,22.80
2008,08,23,15,26,22.70
2008,08,23,15,27,22.60
2008,08,23,15,28,22.60
2008,08,23,15,29,22.50
2008,08,23,15,30,22.50
2008,08,23,15,31,22.60
2008,08,23,15,32,22.60
2008,08,23,15,33,22.70
2008,08,23,15,34,22.60
2008,08,23,15,35,22.50
2008,08,23,15,36,22.50
2008,08,23,15,37,22.40
2008,08,23,15,38,22.40
2008,08,23,15,39,22.40
2008,08,23,15,40,22.40
2008,08,23,15,41,22.40
2008,08,23,15,42,22.50
2008,08,23,15,43,22.60
2008,08,23,15,44,22.70
2008,08,23,15,45,22.70
2008,08,23,15,46,22.80
2008,08,23,15,47,22.80
2008,08,23,15,48,22.90
2008,08,23,15,49,22.90
2008,08,23,15,50,22.90
2008,08,23,15,51,22.90
2008,08,23,15,52,22.90
2008,08,23,15,53,22.80
2008,08,23,15,54,22.80
2008,08,23,15,55,22.90
2008,08,23,15,56,22.90
2008,08,23,15,57,23.00
2008,08,23,15,58,23.10
2008,08,23,15,59,23.10
2008,08,23,16,00,23.10
2008,08,23,16,01,23.00
2008,08,23,16,02,23.00
2008,08,23,16,03,22.90
2008,08,23,16,04,22.90
2008,08,23,16,05,22.80
2008,08,23,16,06,22.80
2008,08,23,16,07,22.90
2008,08,23,16,08,23.00
2008,08,23,16,09,23.10
2008,08,23,16,10,23.20
2008,08,23,16,11,23.30
2008,08,23,16,12,23.30
2008,08,23,16,13,23.20
2008,08,23,16,14,23.20
2008,08,23,16,15,23.30
2008,08,23,16,16,23.30
2008,08,23,16,17,23.30
2008,08,23,16,18,23.40
2008,08,23,16,19,23.50
2008,08,23,16,20,23.60
2008,08,23,16,21,23.70
2008,08,23,16,22,23.70
2008,08,23,16,23,23.60
2008,08,23,16,24,23.60
2008,08,23,16,25,23.60
2008,08,23,16,26,23.70
2008,08,23,16,27,23.70
2008,08,23,16,28,23.70
2008,08,23,16,29,23.70
2008,08,23,16,30,23.70
2008,08,23,16,31,23.70
2008,08,23,16,32,23.70
2008,08,23,16,33,23.80
2008,08,23,16,34,23.80
2008,08,23,16,35,23.90
2008,08,23,16,36,23.70
2008,08,23,16,37,23.70
2008,08,23,16,38,23.70
2008,08,23,16,39,23.70
2008,08,23,16,40,23.60
2008,08,23,16,41,23.50
2008,08,23,16,42,23.30
2008,08,23,16,43,23.30
2008,08,23,16,44,23.30
2008,08,23,16,45,23.40
2008,08,23,16,46,23.40
2008,08,23,16,47,23.40
2008,08,23,16,48,23.60
2008,08,23,16,49,23.60
2008,08,23,16,50,23.40
2008,08,23,16,51,23.30
2008,08,23,16,52,23.20
2008,08,23,16,53,23.10
2008,08,23,16,54,23.10
2008,08,23,16,55,23.00
2008,08,23,16,56,22.90
2008,08,23,16,57,22.80
2008,08,23,16,58,22.70
2008,08,23,16,59,22.60
2008,08,23,17,00,22.40
2008,08,23,17,01,22.30
2008,08,23,17,02,22.10
2008,08,23,17,03,22.00
2008,08,23,17,04,21.90
2008,08,23,17,05,21.80
2008,08,23,17,06,21.70
2008,08,23,17,07,21.70
2008,08,23,17,08,21.70
2008,08,23,17,09,21.80
2008,08,23,17,10,21.90
2008,08,23,17,11,21.90
2008,08,23,17,12,21.90
2008,08,23,17,13,21.90
2008,08,23,17,14,21.90
2008,08,23,17,15,21.90
2008,08,23,17,16,21.90
2008,08,23,17,17,21.90
2008,08,23,17,18,21.90
2008,08,23,17,19,21.90